Home > Weather > Schwäbisch Hall > Past weeks

Flag for Germany Weather for the Past 2 Weeks in Schwäbisch Hall, Baden-Württemberg, Germany

Now
39 °F

Scattered clouds.


Feels Like: 32 °F
Forecast: 34 / 45 °F
Wind: 13 mph from Southeast

Location: Niederstetten

Current Time: Feb 12, 2016 at 3:33:38 PM

Latest Report: Feb 12, 2016 at 2:20 PM


Visibility: N/A

Pressure: 29.47 "Hg

Humidity: 65%

Dew point: 28 °F

Location of Schwäbisch HallLocation

Historic Weather in Schwäbisch Hall — Graph

°F

Schwäbisch Hall Temperature Yesterday

Maximum temperature yesterday: 37 °F (at 3:20 PM)
Minimum temperature yesterday: 34 °F (at 12:20 AM)
Average temperature yesterday: 34 °F

High & Low Weather Summary for the Past Weeks

 TemperatureHumidityPressure
High54 °F (Feb 6, 2:20 PM)100% (Jan 28, 10:20 PM)30.39 "Hg (Jan 28, 10:20 PM)
Low30 °F (Feb 3, 7:20 PM)54% (Feb 6, 2:20 PM)29.12 "Hg (Feb 9, 5:20 PM)
Average40 °F85%29.90 "Hg
* Reported Jan 28 2:20 PM — Feb 12 2:20 PM, Schwäbisch Hall, Weather by CustomWeather, © 2016

Note: Actual official high and low records may vary slightly from our data, if they occured in-between our weather recording intervals... More about our weather records

Advertising

Schwäbisch Hall Weather History for the Previous 24 Hours

 ConditionsComfort  
Time TempWeatherWind HumidityBarometerVisibility
2:20 PM
Fri, Feb 12
39 °FScattered clouds.13 mph65%29.47 "HgN/A
1:20 PM37 °FScattered clouds.9 mph75%29.50 "HgN/A
12:20 PM39 °FScattered clouds.10 mph70%29.53 "HgN/A
12:00 PM37 °FPassing clouds.8 mph75%29.53 "HgN/A
11:20 AM36 °FPassing clouds.9 mph81%29.56 "HgN/A
10:20 AM36 °FPassing clouds.6 mph81%29.59 "HgN/A
9:20 AM32 °FScattered clouds.3 mph87%29.62 "HgN/A
8:20 AM30 °FScattered clouds.6 mph93%29.62 "HgN/A
7:20 AM30 °FPassing clouds.7 mph93%29.65 "HgN/A
6:20 AM32 °FPassing clouds.5 mph87%29.65 "HgN/A
5:20 AM32 °FPassing clouds.5 mph87%29.65 "HgN/A
4:20 AM32 °FPartly cloudy.5 mph93%29.65 "HgN/A
3:20 AM32 °FPartly cloudy.2 mph93%29.68 "HgN/A
2:20 AM34 °FPassing clouds.2 mph93%29.68 "HgN/A
1:50 AM34 °FLight rain. Mostly cloudy.1 mph93%29.68 "HgN/A
1:20 AM34 °FLight rain. Partly cloudy.2 mph93%29.68 "HgN/A
12:20 AM34 °FMostly cloudy.5 mph93%29.68 "HgN/A
11:20 PM
Thu, Feb 11
36 °FOvercast.6 mph87%29.68 "HgN/A
10:20 PM34 °FPassing clouds.5 mph93%29.71 "HgN/A
9:20 PM34 °FPassing clouds.3 mph93%29.68 "HgN/A
8:20 PM34 °FPassing clouds.5 mph93%29.68 "HgN/A
7:20 PM34 °FPartly cloudy.6 mph93%29.71 "HgN/A
6:20 PM36 °FPartly cloudy.8 mph87%29.71 "HgN/A
5:20 PM36 °FBroken clouds.7 mph87%29.68 "HgN/A
5:00 PM36 °FBroken clouds.9 mph87%29.68 "HgN/A
4:20 PM36 °FBroken clouds.9 mph87%29.68 "HgN/A
3:20 PM37 °FSprinkles. Mostly cloudy.15 mph81%29.68 "Hg5 mi
Weather by CustomWeather, © 2016

See weather overviewHow to use our weather pages